BISONSAT

Last updated on Thu Nov 21 2024 00:03:39 GMT+0000 (Coordinated Universal Time)

1 40974U 15058L 24324.81840456 .00015785 00000+0 10485-2 0 9999 2 40974 64.7652 207.0751 0157746 257.7025 100.6391 14.97681927 29012
UTC large
Height (km)
Speed (km/s)
/
Latitude / Longitude
Inclination (degrees)
Orbital Period (minutes)
Azimuth
Elevation
Range (km)
Doppler Factor

Next 0 passes for location: London (51.5072 / 0.1276)

Sorry there are no passes over London.